User: anonymous   Login
Location: Byszew
(52.1813°N, 19.2693°E)
Time: 19:43:22
(UTC+00:00)
Language:

FENGYUN 1C DEB - Orbit

View from above orbital plane
View from above orbital plane
View from above satellite
View from above satellite

Ground track
Ground track

The orbit data is extracted from the following two-line orbital elements,

1 30013U 99025MN  21262.40693284  .00000087  00000-0  10792-3 0  9998
2 30013  99.4813 226.1544 0129508 188.5529 324.0564 13.86353888742594
Epoch (UTC): 19 September 2021 09:45:58
Eccentricity: 0.0129508
inclination: 99.4813°
perigee height: 846 km
apogee height: 1036 km
right ascension of ascending node: 226.1544°
argument of perigee: 188.5529°
revolutions per day: 13.86353888
mean anomaly at epoch: 324.0564°
orbit number at epoch: 74259

The dashed part of the orbit path shows where the satellite is in the earth's shadow,  

DLR